• MPC Preparation (Info)

  • MPEC 2016-N126: 2014 BZ57

    The following Minor Planet Electronic Circular may be linked-to from your own Web pages, but must not otherwise be redistributed electronically.

    A form allowing access to any MPEC is at the bottom of this page.


    Read MPEC 2016-N125 Read MPEC 2016-N127


    M.P.E.C. 2016-N126                               Issued 2016 July 15, 03:33 UT
    
         The Minor Planet Electronic Circulars contain information on unusual
             minor planets and routine data on comets.  They are published
        on behalf of Division F of the International Astronomical Union by the
              Minor Planet Center, Smithsonian Astrophysical Observatory,
                              Cambridge, MA 02138, U.S.A.
    
                 Prepared using the Tamkin Foundation Computer Network
    
                                  MPC@CFA.HARVARD.EDU
                URL https://www.minorplanetcenter.net/    ISSN 1523-6714
    
                                       2014 BZ57
    
    Additional Observations:
         K14B57Z  C2012 01 24.35923 08 50 30.803-02 00 06.47         20.6 wLEN126F51
         K14B57Z  C2012 01 24.37317 08 50 30.727-02 00 06.28         20.6 wLEN126F51
         K14B57Z  C2012 01 24.38717 08 50 30.651-02 00 06.18         20.7 wLEN126F51
         K14B57Z  C2012 01 24.40118 08 50 30.577-02 00 06.00         20.6 wLEN126F51
         K14B57Z  C2013 02 12.40554 08 54 07.299-02 54 11.46         20.8 gLEN126F51
         K14B57Z  C2013 02 12.41837 08 54 07.222-02 54 11.22         21.0 gLEN126F51
         K14B57Z  C2013 02 12.43103 08 54 07.159-02 54 10.95         20.4 rLEN126F51
         K14B57Z  C2013 02 12.44351 08 54 07.093-02 54 10.78         20.4 rLEN126F51
         K14B57Z  C2014 12 16.59333 09 09 32.661-04 55 41.92         20.8 iLEN126F51
         K14B57Z  C2014 12 16.60536 09 09 32.622-04 55 42.33         20.5 iLEN126F51
         K14B57Z  C2014 12 16.61675 09 09 32.592-04 55 42.65         20.7 iLEN126F51
         K14B57Z  C2014 12 16.62817 09 09 32.556-04 55 42.79         20.6 iLEN126F51
         K14B57Z  C2014 12 30.49970 09 08 42.157-04 59 06.34         20.5 iLEN126F51
         K14B57Z  C2014 12 30.51324 09 08 42.100-04 59 06.51         20.6 iLEN126F51
         K14B57Z  C2014 12 30.52681 09 08 42.039-04 59 06.65         20.4 iLEN126F51
         K14B57Z  C2014 12 30.54042 09 08 41.978-04 59 06.71         20.5 iLEN126F51
         K14B57Z  C2015 01 19.47347 09 07 08.248-04 59 40.48         20.7 wLEN126F51
         K14B57Z  C2015 01 19.48480 09 07 08.186-04 59 40.41         20.6 wLEN126F51
         K14B57Z  C2015 01 19.49614 09 07 08.129-04 59 40.36         20.7 wLEN126F51
         K14B57Z  C2015 01 19.50760 09 07 08.071-04 59 40.20         20.7 wLEN126F51
         K14B57Z  C2015 01 21.50350 09 06 57.743-04 59 27.07         20.6 wLEN126F51
         K14B57Z  C2015 01 21.51706 09 06 57.671-04 59 27.00         20.6 wLEN126F51
         K14B57Z  C2015 01 21.53050 09 06 57.600-04 59 26.90         20.6 wLEN126F51
         K14B57Z  C2015 01 21.54392 09 06 57.531-04 59 26.82         20.6 wLEN126F51
         K14B57Z  C2015 01 23.39607 09 06 47.862-04 59 11.92         20.7 wLEN126F51
         K14B57Z  C2015 01 23.40943 09 06 47.792-04 59 11.84         20.7 wLEN126F51
         K14B57Z  C2015 01 23.42277 09 06 47.720-04 59 11.71         20.6 wLEN126F51
         K14B57Z  C2015 01 23.43610 09 06 47.650-04 59 11.60         20.7 wLEN126F51
         K14B57Z  C2015 01 25.37991 09 06 37.417-04 58 53.28         20.6 wLEN126F51
         K14B57Z  C2015 01 25.39298 09 06 37.342-04 58 53.13         20.6 wLEN126F51
         K14B57Z  C2015 01 25.40604 09 06 37.272-04 58 53.03         20.6 wLEN126F51
         K14B57Z  C2015 01 25.41910 09 06 37.205-04 58 52.91         20.6 wLEN126F51
         K14B57Z  C2015 02 18.38300 09 04 29.754-04 51 47.82         20.7 wLEN126F51
         K14B57Z  C2015 02 18.39598 09 04 29.687-04 51 47.60         20.7 wLEN126F51
         K14B57Z  C2015 02 18.40892 09 04 29.621-04 51 47.16         20.6 wLEN126F51
         K14B57Z  C2015 02 18.42189 09 04 29.556-04 51 46.98         20.6 wLEN126F51
         K14B57Z  C2015 02 19.40299 09 04 24.512-04 51 22.57         20.5 wLEN126F51
         K14B57Z  C2015 02 19.41582 09 04 24.443-04 51 22.23         20.7 wLEN126F51
         K14B57Z  C2015 02 19.44140 09 04 24.313-04 51 21.65         20.8 wLEN126F51
         K14B57Z  C2015 03 18.34634 09 02 23.961-04 37 59.98         20.8 wLEN126F51
         K14B57Z  C2015 03 18.35926 09 02 23.914-04 37 59.53         20.6 wLEN126F51
         K14B57Z  C2015 03 18.37223 09 02 23.864-04 37 59.10         20.7 wLEN126F51
         K14B57Z  C2015 03 18.38514 09 02 23.815-04 37 58.67         20.7 wLEN126F51
         K14B57Z  C2015 03 19.34380 09 02 20.379-04 37 27.02         20.6 wLEN126F51
         K14B57Z  C2015 03 19.35677 09 02 20.336-04 37 26.57         20.7 wLEN126F51
         K14B57Z  C2015 03 19.36969 09 02 20.287-04 37 26.15         20.6 wLEN126F51
         K14B57Z  C2015 03 19.38262 09 02 20.237-04 37 25.73         20.6 wLEN126F51
         K14B57Z  C2015 04 16.24639 09 01 15.400-04 22 11.49         20.8 wLEN126F51
         K14B57Z  C2015 04 16.25832 09 01 15.382-04 22 11.11         20.8 wLEN126F51
         K14B57Z  C2015 04 16.27026 09 01 15.372-04 22 10.84         20.8 wLEN126F51
         K14B57Z  C2015 04 16.28215 09 01 15.356-04 22 10.39         20.8 wLEN126F51
         K14B57Z  C2015 04 18.24788 09 01 13.585-04 21 10.35         20.8 wLEN126F51
         K14B57Z  C2015 04 18.26020 09 01 13.574-04 21 09.95         20.8 wLEN126F51
         K14B57Z  C2015 04 18.27254 09 01 13.562-04 21 09.63         20.8 wLEN126F51
         K14B57Z  C2015 04 18.28486 09 01 13.552-04 21 09.22         20.9 wLEN126F51
    
    Observer details:
    F51 Pan-STARRS 1, Haleakala.  Observers B. Gibson, T. Goggia, N. Primak,
        A. Schultz, M. Willman.  Measurers K. Chambers, S. Chastel, Y.-T. Chen,
        L. Denneau, H. Flewelling, M. Holman, M. Huber, R. Jedicke, M. Lackner,
        E. Lilly, H.-W. Lin, E. Magnier, M. Micheli, M. Payne, P. Veres,
        R. Wainscoat, C. Waters, R. Weryk.  1.8-m Ritchey-Chretien + CCD.
    
    Orbital elements:
    2014 BZ57
    Epoch 2016 July 31.0 TT = JDT 2457600.5                 MPC
    M 336.03862              (2000.0)            P               Q
    n   0.00348478     Peri.  263.60577     -0.89134604     -0.02169830
    a  43.0876319      Node   274.45666     +0.21828697     -0.89597130
    e   0.1447737      Incl.   27.01201     -0.39730723     -0.44358157
    P 283              H    4.8           G   0.15           U   3
    Residuals in seconds of arc
    120124 F51  0.0   0.1-    141230 F51  0.0   0.0     150219 F51  0.0   0.0
    120124 F51  0.0   0.0     150119 F51  0.1+  0.0     150219 F51  0.0   0.0
    120124 F51  0.0   0.1-    150119 F51  0.0   0.0     150219 F51  0.1+  0.1-
    120124 F51  0.0   0.1-    150119 F51  0.1+  0.0     150318 F51  0.1-  0.1-
    130212 F51  0.1-  0.1+    150119 F51  0.1+  0.1+    150318 F51  0.1-  0.1-
    130212 F51  0.2-  0.1+    150121 F51  0.0   0.0     150318 F51  0.1-  0.0
    130212 F51  0.2-  0.1+    150121 F51  0.0   0.0     150318 F51  0.1-  0.0
    130212 F51  0.2-  0.0     150121 F51  0.0   0.0     150319 F51  0.1-  0.1-
    140124 809  0.7+  0.8+    150121 F51  0.0   0.0     150319 F51  0.0   0.1-
    140124 809  1.0+  0.8+    150123 F51  0.0   0.0     150319 F51  0.1-  0.1-
    140124 809  1.0+  0.6+    150123 F51  0.0   0.0     150319 F51  0.1-  0.1-
    140130 809  0.8+  0.1-    150123 F51  0.0   0.0     150416 F51  0.1+  0.1+
    140130 809  0.9+  0.0     150123 F51  0.0   0.0     150416 F51  0.0   0.1+
    140130 809  0.8+  0.1-    150125 F51  0.1+  0.0     150416 F51  0.1+  0.0
    141216 F51  0.2-  0.2+    150125 F51  0.0   0.1+    150416 F51  0.0   0.1+
    141216 F51  0.2-  0.1+    150125 F51  0.0   0.0     150418 F51  0.0   0.0
    141216 F51  0.1-  0.0     150125 F51  0.0   0.0     150418 F51  0.0   0.1+
    141216 F51  0.1-  0.0     150218 F51  0.0   0.0     150418 F51  0.0   0.0
    141230 F51  0.1+  0.0     150218 F51  0.0   0.1-    150418 F51  0.0   0.0
    141230 F51  0.1+  0.1-    150218 F51  0.0   0.0
    141230 F51  0.0   0.1-    150218 F51  0.1+  0.1-
    
    Ephemeris:
    2014 BZ57                a,e,i = 43.09, 0.14, 27                 q = 36.850
    Date    TT    R. A. (2000) Decl.     Delta      r     Elong.  Phase     V
    2016 06 15    09 08 30.8 -05 02 36  38.0875 37.5808    59.4     1.3    20.8
    ...
    2016 06 30    09 09 47.0 -05 03 41  38.2659 37.5778    46.8     1.1    20.8
    ...
    2016 07 08    09 10 33.0 -05 05 20  38.3444 37.5761    40.4     1.0    20.7
    ...
    2016 07 14    09 11 09.5 -05 07 03  38.3944 37.5749    35.8     0.9    20.7
    2016 07 15    09 11 15.7 -05 07 22  38.4019 37.5747    35.1     0.9    20.7
    2016 07 16    09 11 22.0 -05 07 42  38.4093 37.5745    34.3     0.9    20.7
    ...
    2016 07 22    09 12 00.1 -05 09 57  38.4484 37.5733    30.1     0.8    20.7
    ...
    2016 07 30    09 12 52.4 -05 13 33  38.4873 37.5717    25.3     0.7    20.7
    ...
    2016 08 14    09 14 32.2 -05 21 59  38.5165 37.5686    20.4     0.5    20.7
    
    A. U. Tomatic                (C) Copyright 2016 MPC           M.P.E.C. 2016-N126
    

    Read MPEC 2016-N125 Read MPEC 2016-N127


    MPEC number:

    Enter an MPEC number in one of the following forms:

    • 1997-B01 (the full form)
    • J97B01 (the packed version of the full form)
    • B01 (the abbreviated form)